DW4369 Weather Reports


time (UTC)temp
F
wind
direction
speed
knots
gust
knots
rain 1hr
in
rain 24hr
in
rain mn
in
humidity
%
barometer
mb
20260504041519 55 239 0.0 0.0 0.00 0.00 0.00 78 1007.1
20260504040027 55 239 0.0 0.0 0.00 0.00 0.00 79 1007.1
20260504034516 55 239 0.0 0.0 0.00 0.00 0.00 78 1007.3
20260504033025 56 239 0.0 0.0 0.00 0.00 0.00 77 1007.4
20260504031516 56 239 0.0 0.0 0.00 0.00 0.00 77 1007.5
20260504030018 57 239 0.0 0.0 0.00 0.00 0.00 75 1007.4
20260504024525 57 242 0.0 0.0 0.00 0.00 0.00 73 1007.5
20260504023022 58 242 0.0 0.0 0.00 0.00 0.00 72 1007.6
20260504021530 60 242 0.0 0.0 0.00 0.00 0.00 69 1007.4
20260504020026 61 243 0.0 0.0 0.00 0.00 0.00 66 1007.4
20260504014532 62 249 0.0 0.0 0.00 0.00 0.00 64 1007.3
20260504013031 63 249 0.0 0.0 0.00 0.00 0.00 61 1007.3
20260504011538 64 257 0.0 0.0 0.00 0.00 0.00 60 1007.0
20260504010027 65 238 0.0 7.8 0.00 0.00 0.00 58 1007.0
20260504004529 63 253 0.0 0.0 0.00 0.00 0.00 63 1007.0
20260504003015 65 248 0.0 0.0 0.00 0.00 0.00 60 1006.5
20260504001530 66 232 0.0 4.3 0.00 0.00 0.00 57 1006.5
20260504000036 66 252 0.0 4.3 0.00 0.00 0.00 55 1006.6
20260503234537 67 211 0.0 1.7 0.00 0.00 0.00 54 1006.7
20260503233027 68 233 0.0 8.7 0.00 0.00 0.00 52 1006.6
20260503231535 68 239 0.9 7.8 0.00 0.00 0.00 52 1006.5
20260503230034 68 250 0.9 12.2 0.00 0.00 0.00 50 1006.6
20260503224520 68 204 3.5 13.9 0.00 0.00 0.00 50 1006.6
20260503223019 66 248 2.6 13.0 0.00 0.00 0.00 51 1006.5
20260503221601 66 227 5.2 19.1 0.00 0.00 0.00 53 1006.6
20260503220017 66 243 1.7 11.3 0.00 0.00 0.00 55 1007.0
20260503214524 64 186 6.1 15.6 0.00 0.00 0.00 57 1006.8
20260503213032 64 223 2.6 13.9 0.00 0.00 0.00 60 1006.9
20260503211522 65 181 7.0 16.5 0.00 0.00 0.00 54 1007.5
20260503210022 64 205 9.6 20.9 0.00 0.00 0.00 52 1006.8
20260503204526 64 239 8.7 17.4 0.00 0.00 0.00 51 1007.4
20260503203054 65 225 7.8 13.0 0.00 0.00 0.00 50 1008.3
20260503201514 65 250 2.6 13.9 0.00 0.00 0.00 52 1008.7
20260503200026 64 179 4.3 16.5 0.00 0.00 0.00 54 1008.5
20260503194515 64 187 4.3 14.8 0.00 0.00 0.00 53 1008.6
20260503193040 64 194 4.3 15.6 0.00 0.00 0.00 51 1009.0
20260503191525 65 166 7.0 20.9 0.00 0.00 0.00 50 1009.4
20260503190016 64 245 4.3 11.3 0.00 0.00 0.00 50 1009.9
20260503184521 64 221 6.1 18.2 0.00 0.00 0.00 50 1010.5
20260503183027 63 188 6.1 15.6 0.00 0.00 0.00 51 1011.0
20260503181537 61 256 7.8 17.4 0.00 0.00 0.00 53 1011.4
20260503180020 61 243 4.3 12.2 0.00 0.00 0.00 53 1012.0
20260503174531 61 222 5.2 10.4 0.00 0.00 0.00 52 1011.8
20260503173015 61 236 4.3 13.9 0.00 0.00 0.00 52 1012.2
20260503171522 63 238 3.5 13.9 0.00 0.00 0.00 49 1012.3
20260503081519 40 210 0.0 0.0 0.00 0.00 0.00 84 1016.0
20260503071522 40 201 0.0 0.0 0.00 0.00 0.00 82 1016.1
20260503054518 42 232 0.0 0.0 0.00 0.00 0.00 77 1016.7
20260503053047 43 211 0.0 0.0 0.00 0.00 0.00 76 1016.8
20260503051536 43 221 0.0 0.0 0.00 0.00 0.00 74 1016.8
20260503050036 43 207 0.0 0.0 0.00 0.00 0.00 74 1016.8
20260503044532 44 203 0.0 0.0 0.00 0.00 0.00 73 1016.8
20260503043041 44 215 0.0 0.0 0.00 0.00 0.00 72 1016.8